FW1312 Weather Reports


Display with metric or nautical units.
time (UTC)temp
F
wind
direction
speed
MPH
gust
MPH
rain 1hr
in
rain 24hr
in
rain mn
in
humidity
%
barometer
mb
20260508031520 62 62 4.0 6.0 0.00 0.00 0.00 81 1013.7
20260508030037 62 11 2.0 4.0 0.00 0.00 0.00 81 1014.1
20260508024510 62 42 2.0 5.0 0.00 0.00 0.00 81 1013.7
20260508023059 62 347 2.0 8.0 0.00 0.00 0.00 81 1014.4
20260508021510 62 65 2.0 5.0 0.00 0.00 0.00 81 1013.8
20260508020010 63 96 3.0 7.0 0.00 0.00 0.00 81 1013.3
20260508014550 63 88 2.0 5.0 0.00 0.00 0.00 81 1013.7
20260508013038 63 97 2.0 6.0 0.00 0.00 0.00 80 1013.7
20260508011540 63 39 1.0 5.0 0.00 0.00 0.00 80 1014.0
20260508010006 64 42 2.0 5.0 0.00 0.00 0.00 80 1014.3
20260508004508 64 9 0.0 5.0 0.00 0.00 0.00 80 1014.6
20260508003009 64 34 2.0 5.0 0.00 0.00 0.00 80 1014.4
20260508001503 64 5 1.0 4.0 0.00 0.00 0.00 81 1014.5
20260508000034 64 18 3.0 6.0 0.00 0.00 0.00 80 1014.5
20260507234508 65 348 2.0 6.0 0.00 0.00 0.00 80 1014.7
20260507233049 65 326 2.0 8.0 0.00 0.00 0.00 81 1014.8
20260507231538 65 36 2.0 9.0 0.00 0.00 0.00 81 1014.6
20260507230036 65 42 3.0 8.0 0.00 0.00 0.00 81 1014.6
20260507224511 65 41 2.0 10.0 0.00 0.00 0.00 82 1015.0
20260507223100 65 38 5.0 9.0 0.00 0.00 0.00 81 1014.9
20260507221525 65 329 10.0 15.0 0.00 0.00 0.00 81 1014.8
20260507220007 65 324 3.0 12.0 0.00 0.00 0.00 82 1015.0
20260507214529 65 323 6.0 11.0 0.00 0.00 0.00 82 1015.3
20260507213043 65 42 6.0 14.0 0.00 0.00 0.00 82 1015.1
20260507211514 65 349 4.0 10.0 0.00 0.00 0.00 82 1014.9
20260507210006 65 28 3.0 11.0 0.00 0.00 0.00 82 1014.8
20260507204501 65 55 4.0 11.0 0.00 0.00 0.00 83 1014.9
20260507203054 65 37 3.0 14.0 0.00 0.00 0.00 83 1015.5
20260507201516 65 360 7.0 12.0 0.00 0.00 0.00 83 1015.5
20260507200004 65 26 3.0 12.0 0.00 0.00 0.00 84 1015.7
20260507194535 66 342 8.0 13.0 0.00 0.00 0.00 84 1016.4
20260507193002 65 309 6.0 12.0 0.00 0.00 0.00 85 1017.1
20260507191544 65 29 9.0 15.0 0.00 0.00 0.00 85 1016.2
20260507190021 64 41 5.0 16.0 0.00 0.00 0.00 85 1016.0
20260507184534 66 37 9.0 15.0 0.00 0.00 0.00 86 1016.5
20260507183024 65 43 6.0 12.0 0.00 0.00 0.00 86 1017.0
20260507181550 63 71 5.0 12.0 0.00 0.00 0.00 86 1016.4
20260507180040 64 38 3.0 12.0 0.00 0.00 0.00 86 1017.7
20260507174609 63 24 5.0 11.0 0.00 0.00 0.00 87 1017.3
20260507173045 63 19 4.0 16.0 0.00 0.00 0.00 87 1017.1
20260507171516 61 24 4.0 11.0 0.00 0.00 0.00 87 1016.9
20260507170018 61 26 5.0 14.0 0.00 0.00 0.00 87 1017.1
20260507164611 60 326 3.0 9.0 0.00 0.00 0.00 87 1017.3
20260507163017 60 5 4.0 10.0 0.00 0.00 0.00 87 1017.9
20260507161550 60 360 3.0 11.0 0.00 0.00 0.00 87 1017.7
20260507160055 60 20 6.0 15.0 0.00 0.00 0.00 87 1017.3
20260507154534 60 16 7.0 14.0 0.00 0.00 0.00 88 1017.2
20260507153032 60 54 7.0 15.0 0.00 0.00 0.00 88 1017.0
20260507151502 59 17 11.0 17.0 0.00 0.00 0.00 88 1016.8
20260507150104 59 30 7.0 14.0 0.00 0.00 0.00 88 1017.2
20260507144556 58 34 5.0 15.0 0.00 0.00 0.00 88 1017.6
20260507143046 58 75 9.0 17.0 0.00 0.00 0.00 88 1017.4
20260507141522 57 18 9.0 14.0 0.00 0.00 0.00 88 1017.3
20260507140042 57 360 6.0 17.0 0.00 0.00 0.00 88 1017.7
20260507134528 57 334 8.0 18.0 0.00 0.00 0.00 88 1018.1
20260507133036 57 9 8.0 16.0 0.00 0.00 0.00 88 1017.4
20260507131538 57 48 10.0 19.0 0.00 0.00 0.00 87 1017.3
20260507130019 57 360 9.0 15.0 0.00 0.00 0.00 87 1017.7
20260507124608 57 349 8.0 15.0 0.00 0.00 0.00 87 1017.2
20260507123035 58 25 9.0 13.0 0.00 0.00 0.00 87 1016.9
20260507121531 58 355 3.0 13.0 0.00 0.00 0.00 87 1017.1
20260507120016 58 360 5.0 16.0 0.00 0.00 0.00 87 1016.9
20260507114556 58 44 6.0 17.0 0.00 0.00 0.00 87 1015.8
20260507113009 58 333 7.0 15.0 0.00 0.00 0.00 87 1015.7